CAPE
0 0 0 0 0 0 0 0 0 0 0 0 0 0 0 0 0 0 0 0 0 0 0 0 0 0 0 4 6 3 2 3 3 6 13 5 11 11 9 28 39 20 19
0 0 0 0 0 0 0 0 0 0 0 0 0 0 0 0 0 0 0 0 0 0 0 0 0 0 0 0 0 3 5 1 3 5 6 16 10 5 7 15 6 9 23
0 0 0 0 0 0 0 0 0 0 0 0 0 0 0 0 0 0 0 0 0 0 0 0 0 0 0 0 0 0 0 1 4 5 7 11 4 4 8 9 22 15 8
0 0 0 0 0 0 0 0 0 0 0 0 0 0 0 0 0 0 0 0 0 0 0 0 0 0 0 0 0 0 0 0 0 3 6 11 15 7 12 22 20 11 11
0 0 0 0 0 0 0 0 0 0 0 0 0 0 0 0 0 0 0 0 0 0 0 0 0 0 0 0 0 0 0 1 1 2 2 7 11 16 10 10 30 20 14
0 0 0 0 0 0 0 0 0 0 0 0 0 0 0 0 0 0 0 0 0 0 0 0 0 0 0 0 0 0 0 3 3 6 6 5 9 12 18 19 14 15 23
0 0 0 0 0 0 0 0 0 0 0 0 0 0 0 0 0 0 0 0 0 0 0 0 0 0 0 0 0 0 0 0 2 2 6 11 8 10 15 21 15 23 6
0 0 0 0 0 0 0 0 0 0 0 0 0 0 0 0 0 0 0 0 0 0 0 0 0 0 0 0 0 0 0 0 0 0 1 8 13 14 12 16 11 33 13
0 0 0 0 0 0 0 0 0 0 0 0 0 0 0 0 0 0 0 0 0 0 0 0 0 0 0 0 0 0 0 0 0 0 0 2 9 14 20 25 18 18 17
0 0 0 0 0 0 0 0 0 0 0 0 0 0 0 0 0 0 0 0 0 0 0 0 0 0 0 0 0 0 0 0 0 0 0 0 7 12 19 25 21 18 27
0 0 0 0 0 0 0 0 0 0 0 0 0 0 0 0 0 0 0 0 0 0 0 0 0 0 0 0 0 0 0 0 0 0 0 0 1 12 26 28 34 31 38
0 0 0 0 0 0 0 0 0 0 0 0 0 0 0 0 0 0 0 0 0 0 0 0 0 0 0 0 0 0 0 0 0 0 0 0 0 5 18 32 36 43 33
0 0 0 0 0 0 0 0 0 0 0 0 0 0 0 0 0 0 0 0 0 0 0 0 0 0 0 0 0 0 0 0 0 0 0 0 0 3 6 12 25 34 36
0 0 0 0 0 0 0 0 0 0 0 0 0 0 0 0 0 0 0 0 0 0 0 0 0 0 0 0 0 0 0 0 0 0 0 0 0 0 4 5 9 15 23
0 0 0 0 0 0 0 0 0 0 0 0 0 0 0 0 0 0 0 0 0 0 0 0 0 0 0 0 0 0 0 0 0 0 0 0 0 1 3 4 10 12 21
0 0 0 0 0 0 0 0 0 0 0 0 0 0 0 0 0 0 0 0 0 0 0 0 0 0 0 0 0 0 0 0 0 0 0 0 0 3 5 5 6 8 19
0 0 0 0 0 0 0 0 0 0 0 0 0 0 0 0 0 0 0 0 0 0 0 0 0 0 0 0 0 0 0 0 0 0 0 0 14 18 7 16 17 23 24
0 0 0 0 0 0 0 0 0 0 0 0 0 0 0 0 0 0 0 0 0 0 0 0 0 0 0 0 0 0 0 0 0 0 0 0 1 6 24 65 78 50 37
0 0 0 0 0 0 0 0 0 0 0 0 0 0 0 0 0 0 0 0 0 0 0 0 0 0 0 0 0 0 0 0 0 0 0 7 24 13 30 37 76 89 79
0 0 0 0 0 0 0 0 0 0 0 0 0 0 0 0 0 0 0 0 0 0 0 0 0 0 0 0 0 0 0 0 0 0 0 0 2 6 18 25 29 68 64
0 0 0 0 0 0 0 0 0 0 0 0 0 0 0 0 0 0 0 0 0 0 0 0 0 0 0 0 0 0 0 0 0 0 0 0 0 0 0 9 19 27 44
0 0 0 0 0 0 0 0 0 0 0 0 0 0 0 0 0 0 0 0 0 0 0 0 0 0 0 0 0 0 0 0 0 0 0 0 0 0 0 0 0 2 14
0 0 0 0 0 0 0 0 0 0 0 0 0 0 0 0 0 0 0 3 8 16 9 0 0 0 0 0 0 0 0 0 0 0 0 0 0 0 0 0 3 10 18
0 0 0 0 0 0 0 0 0 0 0 0 0 0 0 0 0 0 0 0 0 0 0 0 0 0 0 1 0 0 0 0 0 0 0 0 0 0 0 0 4 12 14
0 0 0 0 0 0 0 0 0 0 0 0 0 0 0 0 0 0 0 0 0 0 0 4 23 22 54 60 42 11 0 0 0 0 0 0 0 0 0 0 0 6 16
0 0 0 0 0 0 0 0 0 0 0 0 0 0 0 0 0 0 0 0 0 0 0 0 0 0 0 0 16 12 14 26 0 0 0 0 0 0 1 0 0 0 0
CIN
-0 -0 -0 -0 -0 -0 -0 -0 -0 -0 -0 -0 -0 -0 -0 -0 -0 -0 -0 -0 -0 -0 -0 -0 -0 -0 -0 -0 -0 -0 -0 -0 -0 -0 -0 -0 -0 -0 -0 -0 -0 -1 -0
-0 -0 -0 -0 -0 -0 -0 -0 -0 -0 -0 -0 -0 -0 -0 -0 -0 -0 -0 -0 -0 -0 -0 -0 -0 -0 -0 -0 -0 -0 -0 -0 -0 -0 -0 -0 -0 -0 -0 -0 -0 -0 -1
-0 -0 -0 -0 -0 -0 -0 -0 -0 -0 -0 -0 -0 -0 -0 -0 -0 -0 -0 -0 -0 -0 -0 -0 -0 -0 -0 -0 -0 -0 -0 -0 -0 -0 -0 -0 -0 -0 -0 -0 -0 -0 -0
-0 -0 -0 -0 -0 -0 -0 -0 -0 -0 -0 -0 -0 -0 -0 -0 -0 -0 -0 -0 -0 -0 -0 -0 -0 -0 -0 -0 -0 -0 -0 -0 -0 -0 -0 -0 -0 -0 -0 -0 -0 -0 -0
-0 -0 -0 -0 -0 -0 -0 -0 -0 -0 -0 -0 -0 -0 -0 -0 -0 -0 -0 -0 -0 -0 -0 -0 -0 -0 -0 -0 -0 -0 -0 -0 -0 -0 -0 -0 -0 -0 -0 -0 -0 -0 -1
-0 -0 -0 -0 -0 -0 -0 -0 -0 -0 -0 -0 -0 -0 -0 -0 -0 -0 -0 -0 -0 -0 -0 -0 -0 -0 -0 -0 -0 -0 -0 -0 -0 -0 -0 -0 -0 -0 -0 -0 -0 -0 -0
-0 -0 -0 -0 -0 -0 -0 -0 -0 -0 -0 -0 -0 -0 -0 -0 -0 -0 -0 -0 -0 -0 -0 -0 -0 -0 -0 -0 -0 -0 -0 -0 -0 -0 -0 -0 -0 -0 -0 -0 -0 -0 -0
-0 -0 -0 -0 -0 -0 -0 -0 -0 -0 -0 -0 -0 -0 -0 -0 -0 -0 -0 -0 -0 -0 -0 -0 -0 -0 -0 -0 -0 -0 -0 -0 -0 -0 -0 -0 -0 -0 -0 -0 -0 -0 -0
-0 -0 -0 -0 -0 -0 -0 -0 -0 -0 -0 -0 -0 -0 -0 -0 -0 -0 -0 -0 -0 -0 -0 -0 -0 -0 -0 -0 -0 -0 -0 -0 -0 -0 -0 -0 -0 -0 -0 -0 -0 -0 -0
-0 -0 -0 -0 -0 -0 -0 -0 -0 -0 -0 -0 -0 -0 -0 -0 -0 -0 -0 -0 -0 -0 -0 -0 -0 -0 -0 -0 -0 -0 -0 -0 -0 -0 -0 -0 -0 -0 -0 -0 -0 -0 -0
-0 -0 -0 -0 -0 -0 -0 -0 -0 -0 -0 -0 -0 -0 -0 -0 -0 -0 -0 -0 -0 -0 -0 -0 -0 -0 -0 -0 -0 -0 -0 -0 -0 -0 -0 -0 -0 -0 -0 -0 -0 -0 -0
-0 -0 -0 -0 -0 -0 -0 -0 -0 -0 -0 -0 -0 -0 -0 -0 -0 -0 -0 -0 -0 -0 -0 -0 -0 -0 -0 -0 -0 -0 -0 -0 -0 -0 -0 -0 -0 -0 -0 -0 -0 -0 -0
-0 -0 -0 -0 -0 -0 -0 -0 -0 -0 -0 -0 -0 -0 -0 -0 -0 -0 -0 -0 -0 -0 -0 -0 -0 -0 -0 -0 -0 -0 -0 -0 -0 -0 -0 -0 -0 -0 -0 -0 -0 -0 -0
-0 -0 -0 -0 -0 -0 -0 -0 -0 -0 -0 -0 -0 -0 -0 -0 -0 -0 -0 -0 -0 -0 -0 -0 -0 -0 -0 -0 -0 -0 -0 -0 -0 -0 -0 -0 -0 -0 -0 -0 -0 -0 -0
-0 -0 -0 -0 -0 -0 -0 -0 -0 -0 -0 -0 -0 -0 -0 -0 -0 -0 -0 -0 -0 -0 -0 -0 -0 -0 -0 -0 -0 -0 -0 -0 -0 -0 -0 -0 -0 -0 -0 -0 -0 -0 -0
-0 -0 -0 -0 -0 -0 -0 -0 -0 -0 -0 -0 -0 -0 -0 -0 -0 -0 -0 -0 -0 -0 -0 -0 -0 -0 -0 -0 -0 -0 -0 -0 -0 -0 -0 -0 -0 -0 -0 -0 -0 -0 -0
-0 -0 -0 -0 -0 -0 -0 -0 -0 -0 -0 -0 -0 -0 -0 -0 -0 -0 -0 -0 -0 -0 -0 -0 -0 -0 -0 -0 -0 -0 -0 -0 -0 -0 -0 -0 -2 -0 -0 -0 -0 -0 -0
-0 -0 -0 -0 -0 -0 -0 -0 -0 -0 -0 -0 -0 -0 -0 -0 -0 -0 -0 -0 -0 -0 -0 -0 -0 -0 -0 -0 -0 -0 -0 -0 -0 -0 -0 -0 -0 -0 -0 -0 -0 -0 -0
-0 -0 -0 -0 -0 -0 -0 -0 -0 -0 -0 -0 -0 -0 -0 -0 -0 -0 -0 -0 -0 -0 -0 -0 -0 -0 -0 -0 -0 -0 -0 -0 -0 -0 -0 -3 -0 -0 -0 -0 -0 -0 -0
-0 -0 -0 -0 -0 -0 -0 -0 -0 -0 -0 -0 -0 -0 -0 -0 -0 -0 -0 -0 -0 -0 -0 -0 -0 -0 -0 -0 -0 -0 -0 -0 -0 -0 -0 -0 -0 -0 -0 -0 -0 -0 -0
-0 -0 -0 -0 -0 -0 -0 -0 -0 -0 -0 -0 -0 -0 -0 -0 -0 -0 -0 -0 -0 -0 -0 -0 -0 -0 -0 -0 -0 -0 -0 -0 -0 -0 -0 -0 -0 -0 -0 -0 -1 -0 -0
-0 -0 -0 -0 -0 -0 -0 -0 -0 -0 -0 -0 -0 -0 -0 -0 -0 -0 -0 -0 -0 -0 -0 -0 -0 -0 -0 -0 -0 -0 -0 -0 -0 -0 -0 -0 -0 -0 -0 -0 -0 -0 -0
-0 -0 -0 -0 -0 -0 -0 -0 -0 -0 -0 -0 -0 -0 -0 -0 -0 -0 -0 -3 -1 -1 -0 -0 -0 -0 -0 -0 -0 -0 -0 -0 -0 -0 -0 -0 -0 -0 -0 -0 -0 -0 -0
-0 -0 -0 -0 -0 -0 -0 -0 -0 -0 -0 -0 -0 -0 -0 -0 -0 -0 -0 -0 -0 -0 -0 -0 -0 -0 -0 -8 -4 -0 -0 -0 -0 -0 -0 -0 -0 -0 -0 -0 -0 -0 -0
-0 -0 -0 -0 -0 -0 -0 -0 -0 -0 -0 -0 -0 -0 -0 -0 -0 -0 -0 -0 -0 -0 -0 -2 -1 -6 -3 -2 -2 -2 -7 -0 -0 -0 -0 -0 -0 -0 -0 -0 -0 -0 -0
-0 -0 -0 -0 -0 -0 -0 -0 -0 -0 -0 -0 -0 -0 -0 -0 -0 -0 -0 -0 -0 -0 -0 -0 -0 -0 -0 -0 -23 -30 -34 -0 -0 -0 -0 -0 -0 -0 -0 -0 -0 -0 -1
Wind_Speed
3 3 3 3 3 2 2 3 3 4 5 6 5 5 5 5 5 3 2 9 7 6 7 7 6 5 5 7 7 5 5 6 5 6 6 5 5 6 6 8 8 6 5
3 4 4 3 3 3 3 2 3 3 4 5 6 6 6 5 5 4 3 5 11 9 9 9 8 7 7 6 7 8 7 5 7 7 7 7 4 5 6 6 6 7 8
6 5 4 3 4 3 2 2 5 4 4 4 6 6 5 6 4 6 5 4 6 13 13 12 12 11 10 10 9 9 8 9 9 8 8 7 7 7 5 6 7 6 8
6 5 3 3 3 2 2 2 3 4 4 4 4 5 5 5 6 7 6 5 5 5 11 14 14 14 13 12 12 11 11 10 10 9 9 10 9 8 8 8 9 6 8
7 5 4 4 5 3 4 4 4 4 3 4 5 5 5 5 6 5 6 6 7 6 4 13 17 16 15 15 15 14 14 13 12 12 11 12 10 11 10 9 8 8 8
7 5 4 5 4 3 4 4 5 4 4 4 4 6 6 6 6 6 6 5 5 7 7 7 4 6 17 17 17 16 15 15 14 14 14 13 12 13 12 12 9 9 9
7 7 5 6 5 5 6 6 4 5 3 3 3 4 6 10 11 8 5 5 6 6 7 7 5 4 6 17 18 17 17 17 16 16 16 15 15 14 13 12 11 12 10
7 6 7 6 6 4 6 6 5 3 3 4 3 2 5 6 3 5 5 5 7 5 6 7 7 7 6 5 8 18 18 18 18 17 17 17 16 16 14 15 11 14 13
8 8 8 6 7 6 5 6 6 7 4 3 6 4 3 4 3 4 5 5 6 5 5 6 7 7 7 6 10 11 18 19 19 19 19 19 18 18 18 16 16 15 13
8 8 8 7 7 5 6 6 6 6 5 5 2 6 5 4 2 6 4 3 6 6 7 5 6 6 7 6 10 13 16 19 20 20 20 20 20 19 18 19 17 17 15
8 8 8 8 7 5 6 7 7 6 5 5 5 3 4 5 5 6 8 5 3 4 5 6 6 5 7 6 5 8 18 19 21 21 21 21 21 21 20 20 20 19 17
5 7 8 7 7 7 7 7 7 8 7 6 5 6 6 4 4 5 7 8 7 6 5 7 7 6 6 6 9 15 18 19 21 22 21 22 22 21 20 21 20 20 19
4 7 7 7 6 7 7 6 6 7 7 5 7 7 6 8 5 4 4 8 6 4 4 5 5 6 7 6 7 14 16 19 20 22 23 22 22 22 21 20 20 21 21
5 6 7 7 8 7 7 6 5 5 6 6 9 7 6 6 5 6 8 6 10 7 3 9 4 6 7 6 10 17 11 20 20 22 23 23 23 23 22 21 20 20 21
4 6 6 6 6 7 7 6 5 6 7 6 7 6 7 8 5 6 5 5 7 10 9 6 5 7 7 6 9 8 7 13 19 20 22 23 24 24 23 22 21 21 21
6 7 7 6 6 6 6 7 6 6 7 6 6 7 8 7 7 7 6 5 5 9 12 3 5 4 4 6 7 9 8 15 18 19 20 21 24 24 24 23 22 22 22
7 7 7 7 7 7 7 7 7 7 8 7 7 8 10 8 8 5 5 6 8 8 13 11 7 5 5 6 6 5 6 6 6 19 20 21 21 24 25 24 24 23 23
7 7 7 7 7 7 7 8 8 7 8 8 9 9 12 7 9 9 6 8 8 9 9 16 11 5 7 6 8 7 8 6 6 13 19 22 21 21 24 24 24 25 25
5 5 6 7 7 7 7 7 7 7 8 8 8 9 11 7 10 8 7 9 9 8 9 9 10 5 5 4 6 6 5 6 6 12 19 21 20 22 24 26 25 24 23
5 5 6 6 6 7 7 7 7 7 7 7 7 8 8 8 10 8 7 9 8 7 7 8 9 8 4 5 4 5 5 4 7 6 12 17 19 21 24 23 24 23 22
5 5 5 5 5 5 4 6 7 7 7 7 8 8 9 9 15 15 8 6 5 4 5 5 6 6 3 3 5 4 6 6 4 4 5 6 8 8 8 16 19 22 21
5 5 6 6 6 4 7 9 8 6 7 7 9 9 7 10 11 16 17 19 14 6 7 4 5 6 8 4 4 5 6 3 6 5 6 9 7 8 8 8 16 20 21
4 5 5 5 6 5 8 7 7 4 6 6 7 8 8 7 9 6 11 14 13 13 16 11 12 12 11 11 3 3 5 6 9 6 6 8 4 8 8 9 19 20 20
4 4 5 5 5 4 8 5 5 4 6 7 8 9 9 8 7 6 5 5 6 6 7 7 11 12 11 10 6 7 7 6 7 5 4 6 4 8 8 7 18 21 20
3 3 3 5 5 6 7 4 1 4 5 7 7 7 7 7 8 8 4 6 6 6 7 14 15 13 13 14 14 7 6 5 5 4 5 4 4 5 6 8 9 21 20
3 3 4 5 8 6 2 5 2 2 5 5 6 6 8 6 8 6 3 4 6 6 6 6 5 7 10 10 17 10 7 8 6 2 5 5 3 3 3 5 7 7 7
Wind_Direction
265 279 243 217 228 235 248 267 287 282 293 297 311 289 263 271 241 227 163 200 215 248 274 284 286 294 308 309 313 316 311 321 325 335 331 325 338 346 340 337 348 358 330
227 235 243 224 227 231 232 271 272 294 291 295 296 299 290 273 278 257 220 208 222 234 251 264 270 270 274 282 294 302 303 287 301 311 305 309 326 329 338 326 323 331 336
214 234 227 247 225 237 238 286 281 277 276 282 274 273 273 258 256 259 237 212 207 228 238 244 254 259 265 273 274 275 281 281 283 292 301 293 301 307 304 305 318 308 310
211 230 252 254 241 208 206 269 276 287 284 278 282 279 281 272 252 243 238 223 212 199 234 240 245 251 255 260 262 265 266 268 269 273 286 286 291 290 292 306 310 306 315
212 206 223 240 235 210 206 220 252 236 261 282 283 282 282 274 267 261 245 231 219 212 206 225 239 244 248 256 260 259 257 255 259 264 266 280 278 279 287 282 293 301 302
212 212 221 231 236 223 225 228 230 246 228 248 283 283 276 267 250 239 236 233 225 216 214 217 258 239 246 258 257 258 260 259 257 260 260 261 269 273 276 284 276 288 286
216 211 212 225 229 213 220 221 227 233 274 251 295 286 270 253 247 233 218 217 232 229 210 208 213 208 241 263 251 257 260 261 259 260 261 257 264 263 268 271 283 284 285
221 214 207 219 225 226 227 228 230 253 244 209 226 324 309 325 336 220 201 205 223 236 233 213 211 220 226 232 250 249 258 263 264 264 265 261 260 264 261 265 270 271 281
214 216 219 210 217 214 218 215 209 213 226 275 212 180 304 266 339 283 238 214 213 219 238 231 220 215 220 224 240 245 247 253 262 265 265 261 254 258 265 263 266 265 265
224 217 215 217 223 220 218 216 213 205 177 223 280 230 223 188 234 321 324 267 241 229 226 238 229 223 221 222 233 230 237 250 255 258 263 265 261 255 256 262 264 264 262
214 217 212 213 218 218 230 219 220 208 197 191 198 244 250 243 221 226 280 285 306 259 232 226 226 222 221 225 235 244 250 253 255 259 259 263 264 262 262 262 263 262 257
226 224 220 216 216 217 219 224 224 214 209 212 207 215 217 219 213 216 255 265 252 255 235 232 225 219 219 219 230 235 240 244 249 254 253 256 257 257 260 266 268 269 267
234 229 217 218 222 223 230 228 226 222 215 213 210 224 224 235 231 225 231 265 263 267 267 248 217 220 224 217 227 236 243 250 252 253 255 251 252 253 253 257 265 269 271
237 237 226 216 216 219 225 222 231 233 218 228 230 232 231 234 218 231 242 251 276 272 274 253 242 220 222 221 224 236 235 239 249 255 253 252 248 246 249 252 255 261 266
243 252 255 246 228 225 226 222 226 230 227 230 237 232 232 241 226 232 235 207 244 278 277 248 253 230 231 226 226 233 223 232 242 253 254 252 250 246 248 252 256 259 261
234 238 243 244 246 243 239 229 232 230 229 231 231 229 236 239 233 235 232 222 217 252 271 213 261 266 239 245 242 241 222 221 236 249 252 250 246 249 253 256 258 261 262
228 231 229 230 232 233 234 234 234 228 232 239 235 235 240 229 237 231 224 229 234 233 256 270 270 267 271 260 256 251 231 223 226 240 251 258 255 248 250 260 263 263 264
226 224 226 230 231 231 232 231 235 238 233 236 237 238 246 241 240 237 228 233 234 236 248 267 267 267 246 247 261 236 239 234 229 237 247 255 258 263 268 262 258 260 264
249 245 226 227 228 231 239 240 236 236 238 238 238 239 250 230 247 244 236 241 244 247 246 259 272 250 247 242 261 255 229 229 240 248 255 262 261 259 260 264 256 254 257
259 263 253 246 238 234 237 241 247 253 254 256 253 248 247 239 244 242 236 239 242 235 240 250 261 266 235 241 232 235 260 239 247 247 258 259 261 263 265 264 269 266 254
258 263 267 262 254 245 239 243 251 253 257 268 264 260 258 248 254 254 255 252 242 243 239 238 248 256 239 249 222 230 243 257 241 222 245 248 254 255 256 260 267 271 260
264 262 266 258 255 251 246 251 239 258 269 266 276 277 277 281 273 270 266 262 248 238 256 244 274 262 259 243 232 243 242 250 271 208 236 248 240 247 249 244 241 249 263
246 261 268 277 277 274 273 271 267 259 267 268 270 273 276 276 275 262 267 268 261 256 258 262 263 260 266 264 246 239 224 227 255 256 220 253 215 244 247 250 250 255 255
245 253 264 268 279 285 280 293 292 275 274 268 263 267 261 268 265 273 271 275 260 249 257 263 255 258 258 269 252 256 253 240 265 261 216 267 231 247 254 247 245 246 249
248 257 264 288 287 283 289 319 15 301 288 285 279 282 282 285 283 303 341 310 289 274 271 275 278 258 271 281 277 277 264 250 252 229 198 247 240 250 250 252 242 244 248
224 250 275 265 263 276 292 133 67 322 300 299 308 313 305 344 353 359 334 303 297 281 288 292 285 277 272 271 272 254 252 274 263 255 213 205 208 195 277 249 241 234 231